Flag for U.S.A. Weather past 2 weeks in San Angelo, Texas, U.S.A.

Now
70 °F

Passing clouds.


Feels Like: 77 °F
Forecast: 58 / 82 °F
Wind: 8 mph from South

Location: Mathis Field

Current Time: Oct 22, 2014 at 3:07:05 AM

Latest Report: Oct 22, 2014 at 1:51 AM


Visibility: 10 mi

Pressure: 30.00 "Hg

Humidity: 55%

Dew point: 53 °F

Location of San AngeloLocation

Historic Weather in San Angelo — Graph

°F

San Angelo temperature yesterday

Maximum temperature yesterday: 80 °F (at 3:51 PM)
Minimum temperature yesterday: 54 °F (at 6:51 AM)
Average temperature yesterday: 68 °F

Past Weeks' High & Low Weather Summary

 TemperatureHumidityPressure
High97 °F (Oct 7, 3:51 PM)97% (Oct 12, 3:51 AM)30.23 "Hg (Oct 12, 3:51 AM)
Low42 °F (Oct 15, 6:51 AM)13% (Oct 16, 3:51 PM)29.59 "Hg (Oct 13, 12:51 AM)
Average70 °F56%29.95 "Hg
* Reported Oct 7 1:51 AM — Oct 22 1:51 AM, San Angelo, Weather by CustomWeather, © 2014

Note: Actual official high and low records may vary slightly from our data, if they occured in-between our weather recording intervals... More about our weather records

Advertising

San Angelo weather history for previous 24 hours

 ConditionsComfort  
Time TempWeatherWind HumidityBarometerVisibility
1:51 AM
Oct 22
70 °FPassing clouds.8 mph55%30.00 "Hg10 mi
12:51 AM70 °FPassing clouds.8 mph57%30.00 "Hg10 mi
11:51 PM
Oct 21
71 °FPassing clouds.8 mph55%30.00 "Hg10 mi
10:51 PM73 °FOvercast.8 mph50%30.01 "Hg10 mi
9:51 PM71 °FOvercast.5 mph53%30.01 "Hg10 mi
8:51 PM71 °FMostly cloudy.6 mph53%30.00 "Hg10 mi
7:51 PM73 °FScattered clouds.5 mph50%29.99 "Hg10 mi
6:51 PM77 °FOvercast.7 mph42%29.97 "Hg10 mi
5:51 PM78 °FPartly sunny.6 mph40%29.96 "Hg10 mi
4:51 PM79 °FPartly sunny.6 mph39%29.96 "Hg10 mi
3:51 PM80 °FPartly sunny.7 mph39%29.97 "Hg10 mi
2:51 PM79 °FPartly sunny.8 mph41%29.98 "Hg10 mi
1:51 PM79 °FMostly cloudy.8 mph44%30.00 "Hg10 mi
12:51 PM77 °FPartly sunny.10 mph47%30.04 "Hg10 mi
11:51 AM75 °FSunny.6 mph54%30.07 "Hg10 mi
10:51 AM69 °FSunny.3 mph63%30.09 "Hg10 mi
9:51 AM64 °FSunny.5 mph73%30.10 "Hg10 mi
8:51 AM58 °FSunny.No wind84%30.09 "Hg10 mi
7:51 AM55 °FClear.No wind87%30.06 "Hg10 mi
6:51 AM54 °FClear.No wind86%30.04 "Hg10 mi
5:51 AM57 °FPassing clouds.No wind81%30.02 "Hg10 mi
4:51 AM56 °FPassing clouds.3 mph81%30.02 "Hg10 mi
3:51 AM56 °FClear.No wind81%30.02 "Hg10 mi
Weather by CustomWeather, © 2014

See weather overviewHow to use our weather pages